User: anonymous   Login
Location: Cuiry
(49.3858°N, 3.7708°E)
Time: 23:06:07
(UTC+00:00)
Language:

Cosmos 1821 Rocket - Orbit

View from above orbital plane
View from above orbital plane
View from above satellite
View from above satellite

Ground track
Ground track

The orbit is defined by the following mean orbital elements,

1 17526U          26064.71674390 +.00000000 +00000-0 +47116-4 0 00002
2 17526  82.9045 180.3964 0041137  56.6905 303.8181 13.77211824    09
Epoch (UTC): 05 March 2026 17:12:06
Eccentricity: 0.0041137
inclination: 82.9045°
perigee height: 944 km
apogee height: 1004 km
right ascension of ascending node: 180.3964°
argument of perigee: 56.6905°
revolutions per day: 13.77211824
mean anomaly at epoch: 303.8181°

The dashed part of the orbit path shows where the satellite is in the earth's shadow,  

DLR